Lid_Strength_Index
6 6 5 4 4 4 3 3 3 3 3 2 1 1 0 -0 -0 0 1 1 3 6 5 4 5 6 6 6 9 8 8 8 9 11 12 12 12 12 13 11 12 14 15 15 14 16 17 7 8 11 8 6 7 7
5 4 4 4 4 3 3 2 2 2 2 2 1 0 0 0 -0 -0 3 1 1 4 5 3 3 3 3 4 6 7 8 8 8 10 10 10 12 11 13 15 10 15 11 13 12 12 8 6 7 6 5 6 7 7
5 4 4 3 2 2 2 1 1 1 1 2 1 0 0 0 0 1 2 2 2 5 5 5 5 4 2 3 2 7 6 6 6 6 8 10 12 10 14 13 11 10 8 11 11 9 8 7 7 7 6 7 7 7
4 3 2 2 1 1 1 0 0 0 0 1 1 1 0 1 1 1 2 1 3 5 9 7 2 4 3 3 3 3 5 4 5 6 8 10 11 9 10 10 10 9 9 11 10 8 7 7 6 6 7 7 8 8
3 2 2 2 1 0 0 0 -0 -0 -0 0 0 0 0 0 1 1 2 1 1 5 9 8 4 4 3 3 4 4 5 6 6 8 9 10 8 9 8 8 10 7 9 12 11 7 7 7 6 5 7 8 8 8
2 2 2 1 1 0 0 -0 -0 -1 -0 -0 0 0 -0 1 2 3 5 2 1 1 6 10 5 5 4 4 4 5 5 6 7 8 8 8 7 8 11 12 8 6 5 5 7 5 5 5 5 5 6 7 8 8
2 2 1 1 0 -0 -0 -0 -0 -1 -1 -0 0 -0 1 2 2 5 6 3 2 2 7 9 9 5 4 5 5 5 5 7 6 8 8 9 9 8 10 12 8 6 5 5 4 5 6 6 6 6 6 7 7 8
2 2 1 1 0 0 0 -0 -0 -0 -1 -1 -0 1 1 2 2 4 2 2 2 5 5 10 9 8 4 7 8 5 7 7 8 8 8 10 8 8 11 8 7 6 6 5 5 4 5 5 6 7 7 7 8 9
2 1 1 1 0 0 0 0 -0 -0 -1 -0 1 2 2 3 5 4 1 1 2 5 9 9 11 12 5 7 7 8 7 11 7 10 10 9 10 12 9 8 7 6 6 6 5 5 6 6 7 7 7 7 7 8
1 1 1 1 0 0 0 0 -0 -1 -0 1 2 5 8 4 1 1 4 6 7 7 7 9 8 10 7 8 9 9 8 10 12 10 8 11 11 8 6 6 5 5 5 5 6 7 7 8 8 8 7 7 8 8
2 1 1 1 1 0 0 -0 -0 0 2 3 6 7 4 2 5 7 9 9 9 11 9 9 9 9 6 10 10 8 10 10 13 10 11 11 11 8 6 6 4 4 5 5 4 5 5 7 8 8 8 8 8 8
2 2 1 1 1 0 0 0 1 2 4 4 4 3 4 6 8 10 11 10 10 11 10 10 9 8 7 6 9 9 10 10 13 8 11 13 9 6 6 5 5 5 5 5 5 6 6 7 7 7 9 9 9 8
2 2 2 1 0 0 1 1 2 2 2 4 7 8 8 9 12 12 13 11 11 9 9 9 9 8 7 6 9 9 12 11 7 12 13 10 7 6 5 6 7 7 6 6 6 6 7 7 7 8 9 8 9 9
2 2 1 1 1 1 1 1 2 2 4 8 9 12 10 12 11 10 9 9 8 7 8 7 8 8 7 10 9 12 10 9 13 14 12 8 7 6 5 6 6 7 6 6 7 7 7 8 8 8 8 9 9 10
2 2 1 2 1 1 1 1 2 2 5 9 9 11 11 8 8 7 6 7 6 6 7 8 9 8 10 11 10 11 12 14 12 12 10 7 7 7 8 7 7 7 7 7 7 8 7 8 8 8 8 9 9 9
3 2 3 2 1 1 1 2 2 3 5 7 8 9 9 9 9 7 7 7 5 6 6 7 10 11 11 11 12 13 13 13 12 9 7 8 8 8 8 7 7 7 7 8 8 8 8 9 8 8 9 9 9 9
3 4 3 2 2 1 1 3 4 6 7 8 9 7 9 10 9 7 6 6 5 7 9 9 11 12 9 12 13 10 11 10 8 7 7 8 8 7 7 7 7 7 7 8 8 8 9 8 8 9 10 10 9 9
5 4 3 3 2 3 3 4 6 7 9 9 10 10 8 6 6 6 6 5 5 6 7 9 8 11 12 13 12 9 8 8 7 8 9 8 7 7 7 7 7 7 7 7 7 8 9 8 8 9 10 10 10 9
4 3 2 2 3 4 6 6 6 10 9 7 7 7 7 6 4 4 4 4 4 4 6 8 10 11 10 9 9 8 7 8 8 8 8 7 7 7 7 6 7 7 7 7 7 8 8 7 8 8 9 9 10 11
3 2 2 2 2 5 7 7 5 8 9 7 6 6 6 6 5 5 5 5 5 6 8 9 9 8 8 7 6 6 7 8 8 8 9 8 7 7 7 6 7 7 8 8 8 9 9 9 9 10 10 11 11 11
3 2 1 1 3 4 6 7 8 7 7 7 5 6 6 5 6 6 7 4 7 8 9 7 6 5 4 4 4 5 5 5 6 6 7 7 6 7 7 8 7 8 8 9 9 10 10 11 10 10 10 11 11 11
4 2 3 3 5 5 6 5 6 5 7 6 6 6 7 7 7 6 5 7 8 6 6 6 5 5 5 5 5 5 6 5 6 7 8 8 8 8 8 8 9 9 9 10 10 10 11 11 10 10 11 11 11 11
3 3 4 5 7 8 8 4 7 6 9 8 7 8 8 8 7 6 8 7 6 5 5 5 4 4 4 5 5 6 6 5 6 6 7 7 7 8 9 9 8 9 10 10 10 10 11 12 11 11 11 11 12 12
3 5 7 8 8 9 6 8 6 7 7 8 9 10 9 8 6 8 9 7 6 6 5 5 4 5 5 6 6 6 6 6 6 6 7 7 8 9 8 9 9 9 9 10 10 11 11 11 12 11 11 12 12 12
9 9 8 10 7 9 9 9 9 9 10 9 10 9 9 7 9 10 9 8 6 5 5 5 4 5 6 6 6 7 6 6 7 7 7 6 7 8 9 9 9 10 10 11 11 11 11 11 11 11 11 12 12 12
11 9 10 9 9 9 9 10 10 10 9 9 9 7 7 8 10 10 8 7 6 5 5 5 6 7 7 6 7 7 7 6 6 7 7 6 6 7 9 10 10 11 9 9 10 11 11 11 12 12 12 12 13 12
11 10 8 6 7 7 8 8 7 9 10 10 9 9 9 12 11 8 5 4 5 4 4 4 4 5 6 6 6 6 6 6 6 7 7 6 6 5 6 7 8 8 9 10 10 11 11 11 11 11 11 12 12 12
9 8 10 8 8 7 9 9 9 10 9 7 8 11 11 11 10 6 5 4 4 5 5 5 6 6 6 6 7 8 9 9 9 9 9 9 9 7 7 7 8 11 9 9 10 10 10 11 11 11 12 12 12 12
9 8 8 9 8 8 8 8 9 7 6 7 9 9 8 5 4 4 4 5 4 3 5 5 5 7 8 8 8 8 8 8 8 9 9 9 10 10 9 9 10 9 10 11 13 11 10 11 11 11 12 12 12 12
9 7 8 8 9 9 7 6 6 5 5 5 6 6 6 5 4 4 4 5 4 4 4 5 7 7 8 8 9 9 8 7 6 6 8 9 9 10 10 10 10 10 10 11 11 13 14 12 13 12 12 12 12 13
7 7 8 8 8 7 6 5 5 5 6 7 6 7 7 5 4 4 4 4 4 4 5 6 7 8 8 9 8 8 9 7 7 7 8 9 10 10 10 10 11 10 10 11 11 11 12 12 12 12 13 13 13 13
7 8 8 9 9 6 6 6 8 8 8 8 8 7 7 6 7 5 4 4 4 5 7 6 7 8 7 7 7 6 9 7 8 9 10 10 10 11 11 11 10 10 10 11 11 11 11 12 12 12 13 13 13 13
7 7 7 7 9 8 8 8 9 9 9 9 9 8 7 7 8 5 3 4 4 5 5 4 4 6 7 7 6 6 8 7 10 12 12 12 12 11 11 10 10 10 11 11 11 11 11 12 12 13 13 13 14 14